RH
63 69 77 78 70 67 80 86 96 87 86 91 81 77 65 65 68 56 52 46 41 43 42 35 37 45 42 43 40 36 33 60 72 70 98 97 91 94 90 82 87 87 99 98
67 74 80 75 70 74 72 61 62 70 90 85 92 89 93 65 57 51 44 44 44 39 38 47 55 50 44 34 36 36 33 34 30 64 80 89 92 79 61 80 72 70 67 75
78 61 71 88 54 54 45 42 59 76 71 70 64 59 51 49 50 49 51 49 42 42 44 44 39 38 36 33 31 32 33 28 26 38 59 85 92 78 67 84 95 85 76 67
86 82 97 52 37 52 61 62 60 58 64 75 69 55 50 51 66 61 60 56 62 66 61 58 56 53 50 48 44 44 47 46 47 49 68 78 92 82 59 67 82 87 90 74
86 79 74 53 44 65 70 70 55 46 46 59 58 68 58 52 59 56 56 58 56 54 47 45 46 48 49 46 41 37 36 34 31 56 69 76 88 73 56 46 75 86 98 82
72 89 96 49 51 53 49 67 46 59 66 66 63 54 53 44 54 45 42 35 29 26 22 25 32 34 37 41 46 39 38 36 32 49 63 73 53 55 39 46 47 84 82 70
67 74 60 34 38 51 72 55 60 63 54 42 40 36 30 27 25 29 33 26 24 27 33 28 27 25 24 28 34 39 44 32 36 38 46 52 65 52 43 34 45 56 67 78
60 69 70 39 44 55 51 47 36 35 43 75 65 56 55 53 39 34 44 58 69 68 66 65 57 50 42 38 34 34 37 45 48 50 47 50 49 45 40 35 42 49 60 90
63 55 38 41 40 40 46 67 70 79 70 74 77 71 73 79 79 81 82 73 80 77 70 74 73 73 60 49 56 61 67 58 56 40 52 41 33 31 33 46 54 60 97 98
50 21 37 58 63 70 74 70 63 58 60 64 64 59 58 60 61 61 62 66 70 77 66 58 64 76 87 78 60 70 65 64 65 64 50 64 59 59 57 57 67 86 89 100
41 41 59 53 60 75 81 90 95 92 89 85 86 84 87 86 86 79 77 74 74 77 74 71 74 62 87 95 75 66 95 91 48 51 66 63 78 77 88 85 90 96 100 100
72 84 90 79 96 94 93 84 84 86 81 79 81 84 93 93 94 89 85 83 80 74 77 86 75 88 79 86 81 92 65 50 68 80 69 75 88 99 94 90 96 100 100 100
82 88 98 97 86 84 80 77 77 72 73 93 96 98 96 92 93 95 96 88 92 77 68 81 92 91 88 86 66 54 79 89 88 79 96 95 92 92 97 97 95 95 95 94
97 97 85 69 75 72 83 98 98 97 97 97 96 98 100 100 96 97 96 91 93 86 69 74 93 82 92 84 63 35 65 94 95 94 96 94 90 94 95 95 96 95 95 96
89 75 62 56 50 76 68 80 94 95 96 98 100 97 99 97 96 97 96 90 84 80 74 73 85 89 92 78 55 32 48 97 95 95 97 97 95 95 94 94 96 97 96 94
54 56 48 38 30 24 25 45 70 91 91 89 95 98 96 98 95 96 96 88 85 86 81 86 95 94 88 75 56 38 54 92 98 95 97 96 95 94 92 94 97 97 97 97
45 42 39 36 33 27 18 15 34 79 95 95 92 97 92 95 97 98 95 92 82 85 87 77 98 94 94 81 64 46 80 98 99 94 95 96 97 96 96 96 96 84 71 61
46 43 42 40 37 33 26 16 12 31 88 94 96 97 90 91 93 96 98 89 92 96 94 94 96 99 94 78 69 58 83 99 98 95 96 96 96 95 88 70 63 58 49 47
49 44 42 41 44 42 34 23 15 13 46 96 94 95 97 94 96 95 98 100 98 93 92 91 90 84 80 80 80 67 88 94 100 96 95 97 96 91 68 64 53 48 49 43
57 52 48 43 31 34 37 38 23 13 14 65 95 95 96 98 97 91 83 84 84 85 80 81 86 90 97 98 93 89 96 100 98 96 97 97 96 84 68 53 50 50 39 24
47 41 38 30 27 32 37 39 41 28 14 14 78 96 95 94 95 95 92 88 87 88 93 97 98 98 100 100 100 99 99 98 96 97 97 96 95 75 60 55 53 38 24 20
35 32 32 28 25 24 24 25 37 43 34 16 19 88 96 96 96 97 97 94 92 95 96 96 97 97 97 100 98 97 97 97 97 98 98 96 85 66 59 56 40 26 22 17
44 40 32 31 31 29 26 23 29 41 43 38 19 23 87 96 96 97 98 98 97 95 90 93 93 91 92 96 99 98 97 96 96 97 96 89 70 61 58 44 30 28 23 18
52 44 46 43 37 32 33 28 22 18 34 46 44 19 24 87 97 96 97 98 96 91 86 88 90 93 94 95 97 97 96 97 96 92 79 68 62 60 48 34 32 28 22 18
64 54 58 58 43 37 33 29 30 31 20 16 44 46 21 34 95 96 96 97 96 86 80 88 95 93 95 97 99 100 97 90 85 76 71 67 65 56 40 32 30 26 23 21
68 67 70 78 65 55 47 42 32 28 29 26 17 42 46 22 30 95 96 96 97 97 80 78 98 100 99 97 90 86 86 86 80 78 77 72 66 55 41 34 32 29 26 23
80 84 90 95 93 88 84 68 53 48 42 35 27 23 45 47 22 26 94 97 97 96 97 83 77 88 87 85 87 87 88 89 86 85 83 79 75 67 53 45 42 36 29 27
Wind_Speed
27 27 26 28 34 35 37 37 23 30 31 33 28 29 25 24 20 18 18 21 21 25 23 24 24 22 18 20 23 24 25 29 29 24 19 17 17 20 24 25 23 17 20 15
30 27 25 31 36 33 37 37 38 29 27 24 24 26 22 25 25 22 20 23 26 24 24 23 24 25 27 28 28 28 25 29 32 29 30 27 18 19 23 25 24 24 28 26
26 26 21 20 33 32 30 25 29 29 28 23 23 23 27 26 24 24 26 26 29 28 28 29 30 32 34 36 36 34 34 33 34 34 33 32 21 22 22 22 22 18 19 22
18 19 6 22 26 20 20 22 23 21 20 21 22 25 26 25 16 19 21 24 25 23 25 27 26 27 29 29 32 33 30 26 24 30 29 34 26 23 23 22 23 23 21 22
11 17 22 30 20 8 11 22 18 29 31 25 26 24 27 26 24 26 27 29 30 32 34 35 35 34 33 33 34 32 30 29 27 24 26 23 32 26 27 24 24 28 28 21
16 7 6 28 25 25 33 26 31 24 23 25 27 36 35 33 34 36 35 37 36 36 38 38 40 38 39 37 36 37 37 33 30 27 29 26 24 25 25 27 26 24 23 20
13 15 16 31 22 21 15 24 20 23 33 43 44 46 47 45 44 44 45 47 46 41 38 39 38 41 44 43 38 34 35 35 33 32 32 30 30 31 30 29 26 28 27 26
11 8 10 18 15 22 30 38 45 45 42 37 39 40 38 38 42 43 41 36 33 34 34 34 33 37 36 37 37 33 35 33 33 33 35 37 34 32 32 32 32 33 30 26
14 22 33 37 38 34 34 35 37 36 37 37 38 39 38 37 36 34 36 36 33 32 32 31 31 30 31 30 31 30 30 32 33 36 33 36 34 33 31 30 30 30 30 30
28 31 30 30 28 28 32 35 38 39 42 43 46 46 48 48 46 46 45 43 42 42 41 40 36 33 34 32 33 32 30 31 32 34 32 30 29 28 27 28 28 28 28 34
27 29 33 33 32 36 37 39 42 45 46 45 45 47 46 47 46 45 44 43 42 43 42 39 34 38 42 37 32 28 26 30 31 28 27 29 24 24 25 24 26 31 31 30
30 30 33 33 34 35 38 39 38 40 40 40 41 44 44 45 45 45 43 38 35 30 27 25 24 29 15 14 22 16 21 26 25 27 29 24 21 22 23 24 22 27 30 23
28 26 27 34 35 33 36 35 35 36 34 36 32 35 37 40 40 38 35 33 29 24 19 17 14 3 9 11 12 16 20 21 22 25 17 17 18 16 17 16 21 17 23 20
22 28 26 29 33 30 30 32 32 28 26 31 37 38 39 36 34 32 26 23 20 18 17 14 13 10 11 15 17 17 17 18 20 21 14 13 10 10 9 10 14 18 20 21
19 22 26 29 29 30 30 32 28 26 29 31 35 37 33 29 27 22 20 16 16 16 16 15 14 11 13 16 17 16 15 14 15 12 7 7 5 6 7 8 11 14 17 19
18 22 24 25 27 28 29 29 30 30 32 32 34 37 31 23 20 16 9 9 11 13 15 15 16 14 14 16 17 16 13 14 13 9 7 8 10 11 13 15 17 17 18 17
20 20 22 24 27 29 30 31 31 32 32 34 29 32 25 11 11 7 5 7 8 16 16 16 16 15 15 17 18 16 11 12 10 8 9 12 13 14 17 19 18 18 17 17
19 22 24 28 30 31 31 30 30 30 30 31 30 27 18 11 9 7 3 6 6 8 12 14 17 18 19 20 19 15 12 11 9 9 12 15 18 19 18 18 17 16 15 14
20 22 25 28 30 31 32 32 31 29 29 29 29 28 21 15 9 9 8 6 9 12 15 18 21 24 24 22 19 15 13 14 13 13 17 20 21 19 18 16 15 14 13 12
21 23 25 28 31 33 34 33 32 31 28 28 27 31 18 19 18 17 18 18 19 19 18 17 17 17 15 14 15 15 15 15 16 18 20 23 20 18 17 16 16 14 13 13
23 25 27 28 29 31 33 35 34 32 32 29 28 28 25 20 19 18 15 14 15 16 18 21 19 17 17 18 18 18 17 18 19 20 23 21 19 17 16 15 14 13 12 11
24 25 26 28 30 32 33 35 34 32 31 30 27 26 25 21 15 14 16 18 20 19 15 12 11 12 13 14 14 16 19 20 21 22 20 18 16 15 14 14 13 12 12 13
25 29 29 31 32 33 34 35 36 34 31 29 28 26 24 22 17 12 10 10 10 8 7 7 6 5 5 10 13 17 18 20 21 20 18 16 16 15 14 14 13 13 13 15
29 30 32 33 35 36 35 34 34 36 33 29 27 28 27 23 17 15 11 9 8 8 7 6 5 6 8 12 14 16 18 18 18 17 17 16 16 15 14 14 14 14 15 16
33 34 34 36 36 36 35 37 37 37 36 34 29 26 26 25 24 18 16 14 12 10 10 9 9 11 12 13 14 16 17 17 16 16 15 15 15 14 14 14 14 15 16 17
36 37 37 38 38 38 38 40 42 42 41 40 35 31 27 26 26 23 20 19 17 15 13 13 13 15 16 16 17 18 18 18 17 17 16 16 16 16 15 15 15 15 16 18
37 38 40 41 41 41 43 44 45 47 46 47 44 38 33 28 26 27 25 22 22 20 18 17 17 18 19 19 20 21 19 19 19 19 18 18 18 17 17 16 16 16 17 18
Wind_Direction
271 271 273 275 275 274 277 278 269 283 283 284 280 279 273 270 278 286 300 297 296 288 283 277 272 271 284 297 297 303 304 308 308 304 281 296 301 301 292 304 286 284 280 272
277 276 276 281 276 278 276 286 286 288 280 288 295 293 289 286 289 298 285 282 281 279 282 279 276 278 283 293 295 294 293 293 298 297 297 293 298 301 300 290 289 278 269 269
270 286 287 272 272 283 295 290 286 283 288 295 286 286 292 294 297 294 276 271 271 273 274 275 277 279 281 286 292 294 296 293 290 289 289 278 271 288 287 275 267 273 267 259
272 287 252 275 288 277 273 279 282 282 286 284 281 284 284 288 289 280 268 262 260 270 275 277 284 289 295 297 297 300 304 306 296 295 278 279 271 276 280 273 267 259 260 259
245 258 275 287 291 283 294 290 276 293 286 271 274 270 271 273 276 281 279 273 269 271 283 285 285 285 288 291 288 288 292 294 298 291 283 275 267 277 272 270 263 257 258 260
247 240 238 278 285 287 299 282 298 280 261 269 280 297 285 292 287 289 285 288 289 289 289 285 284 282 282 278 278 283 286 291 293 294 283 273 269 283 277 265 264 264 271 269
266 258 272 292 301 289 265 283 275 272 283 286 283 281 286 283 281 282 283 287 289 287 284 283 281 280 278 275 275 278 279 286 285 285 275 274 269 264 279 272 261 255 256 261
271 245 273 303 300 279 286 284 287 290 289 291 289 288 289 290 283 282 285 287 284 285 290 294 287 282 281 277 271 264 271 279 283 280 273 273 269 260 272 271 261 255 246 247
270 268 286 291 293 289 288 288 288 289 291 292 292 290 292 291 289 288 285 282 279 288 289 284 288 291 286 276 265 265 265 270 276 285 281 283 281 277 275 264 260 262 246 251
294 292 301 302 299 293 290 290 293 292 293 293 293 292 290 288 284 283 282 281 281 285 284 284 282 288 287 274 266 268 272 276 280 283 276 282 277 272 266 263 261 260 257 248
292 297 301 297 301 303 301 299 297 297 295 294 293 291 291 289 287 284 282 280 278 278 281 283 281 278 287 269 261 266 267 272 280 280 275 286 273 268 262 261 260 251 244 245
295 299 298 310 311 308 303 301 302 301 300 300 298 296 295 293 290 287 281 277 280 283 278 270 281 287 271 251 252 269 282 279 280 282 285 279 273 268 269 271 256 233 235 219
293 303 304 304 323 324 317 312 307 304 306 307 308 305 301 296 293 292 285 270 269 276 250 263 286 291 305 326 306 290 289 283 286 295 277 263 267 279 273 242 205 186 171 177
298 297 307 316 329 334 328 327 318 317 317 315 316 314 310 299 295 290 289 261 254 246 236 252 269 278 305 307 303 290 291 285 293 289 256 260 279 273 242 235 238 206 190 189
326 318 309 316 320 325 333 330 333 322 316 320 329 330 321 305 303 291 289 251 239 237 229 241 256 268 283 300 295 292 302 289 303 296 258 246 215 182 166 185 190 186 182 179
308 315 316 317 322 328 328 334 332 334 334 323 328 336 333 321 312 301 263 229 241 220 225 243 256 266 281 299 296 297 292 293 297 294 259 205 176 177 171 174 171 166 165 168
320 317 319 329 336 340 339 336 335 334 328 337 327 336 343 357 350 345 317 244 251 229 240 256 261 271 284 294 295 297 282 295 280 278 220 188 180 182 178 174 172 173 175 178
317 325 330 332 335 337 339 338 335 334 332 330 337 325 341 333 331 316 257 260 250 255 256 265 273 276 281 288 286 282 279 284 269 251 208 191 183 179 184 184 183 185 188 189
319 327 334 336 336 339 339 339 338 333 332 330 332 332 316 312 297 282 295 297 293 285 276 276 277 277 275 273 266 262 266 268 257 218 200 190 186 187 193 192 191 194 196 201
323 325 329 332 334 336 339 339 337 336 332 330 329 335 314 313 301 288 279 284 288 285 283 281 283 276 261 255 250 253 255 248 224 199 197 191 192 191 200 201 201 202 206 208
317 320 324 328 333 334 334 335 336 337 337 331 328 331 336 311 301 286 290 291 287 284 282 283 277 268 264 259 252 245 234 212 197 195 195 199 196 198 203 208 212 215 217 216
318 319 323 326 327 330 329 329 330 331 332 330 325 323 330 330 315 293 279 283 288 284 281 281 271 260 253 241 226 214 201 193 193 193 200 199 200 208 213 219 225 228 227 222
313 316 322 327 329 329 330 327 324 321 323 327 326 320 318 327 321 315 305 299 287 278 279 276 265 249 217 188 185 189 192 190 192 200 202 202 211 216 221 226 230 234 234 231
308 312 317 321 323 323 321 320 321 320 317 317 322 318 311 304 308 293 281 279 277 278 277 267 239 212 195 184 180 181 185 191 197 202 207 214 218 221 227 233 237 241 240 238
301 301 305 310 316 318 318 319 317 314 313 313 306 309 305 296 291 289 271 258 261 261 257 246 224 204 197 196 194 194 196 200 206 212 218 222 225 229 234 240 245 248 247 246
295 291 293 298 305 307 312 315 316 315 311 307 310 297 297 292 283 275 268 257 246 247 245 237 226 223 223 217 210 208 210 212 214 218 222 225 230 234 237 241 247 250 250 251
287 286 287 289 293 295 298 301 304 308 310 310 303 306 287 286 281 272 265 254 245 239 236 235 229 224 225 222 217 216 218 222 223 224 227 230 232 234 237 241 247 251 254 256